This is the latest recevied weather packets stored in our database for station/object K2CAT. If no packets are shown the sender has not sent any weather packets the latest 10 day(s).
| Time | Temp. | Humidity | Pressure | Rain* | Wind** | Luminosity | Snow |
|---|---|---|---|---|---|---|---|
| 1777818838 | 10.56° C | 41% | 1011.6 hPa | 0 mm | - | 572 W/m² | - |
| 1777818534 | 10.56° C | 44% | 1011.4 hPa | 0 mm | - | 238 W/m² | - |
| 1777818231 | 10.56° C | 43% | 1011.4 hPa | 0 mm | - | 117 W/m² | - |
| 1777817927 | 10° C | 46% | 1011.3 hPa | 0 mm | - | 335 W/m² | - |
| 1777817625 | 10° C | 48% | 1011.5 hPa | 0 mm | - | 357 W/m² | - |
| 1777817321 | 10° C | 48% | 1011.3 hPa | 0 mm | - | 145 W/m² | - |
| 1777817019 | 10° C | 48% | 1011.6 hPa | 0 mm | - | 259 W/m² | - |
| 1777816714 | 9.44° C | 50% | 1011.5 hPa | 0 mm | - | 97 W/m² | - |
| 1777816412 | 9.44° C | 50% | 1011.6 hPa | 0 mm | - | 88 W/m² | - |
| 1777816110 | 8.89° C | 49% | 1011.9 hPa | 0 mm | - | 126 W/m² | - |
| 1777815807 | 9.44° C | 49% | 1011.8 hPa | 0 mm | - | 135 W/m² | - |
| 1777815505 | 8.89° C | 52% | 1011.8 hPa | 0 mm | - | 144 W/m² | - |
| 1777815202 | 8.89° C | 51% | 1011.9 hPa | 0 mm | - | 145 W/m² | - |
| 1777814898 | 8.89° C | 51% | 1012 hPa | 0 mm | - | 178 W/m² | - |
| 1777814595 | 8.89° C | 52% | 1011.8 hPa | 0 mm | - | 123 W/m² | - |
| 1777814292 | 8.89° C | 53% | 1012 hPa | 0 mm | - | 91 W/m² | - |
| 1777813988 | 8.89° C | 53% | 1011.8 hPa | 0 mm | - | 100 W/m² | - |
| 1777813686 | 8.89° C | 54% | 1012.1 hPa | 0 mm | - | 87 W/m² | - |
| 1777813383 | 8.33° C | 53% | 1011.9 hPa | 0 mm | - | 55 W/m² | - |
| 1777813080 | 8.33° C | 54% | 1012 hPa | 0 mm | - | 64 W/m² | - |
| 1777812778 | 8.33° C | 53% | 1012.1 hPa | 0 mm | - | 81 W/m² | - |
| 1777812474 | 8.33° C | 56% | 1012 hPa | 0 mm | - | 71 W/m² | - |
| 1777812172 | 8.89° C | 54% | 1011.9 hPa | 0 mm | - | 102 W/m² | - |
| 1777811870 | 8.33° C | 56% | 1011.9 hPa | 0 mm | - | 86 W/m² | - |
| 1777811569 | 8.33° C | 59% | 1011.7 hPa | 0 mm | - | 88 W/m² | - |
* Rain latest hour (hover to see other rain measurements)
** Current wind speed in m/s (hover to see current wind gust speed)